RH
78 80 88 78 77 92 99 82 79 89 62 73 78 78 78 76 75 76 76 73 72 71 73 75 71 70 71 71 69 68 64 64 67 67 69 70 68 67 66 66 66 60 62
94 88 93 95 97 94 95 97 89 84 60 66 73 81 82 83 82 78 80 78 76 76 75 77 74 74 70 71 71 71 68 68 71 74 78 80 67 62 66 66 63 64 67
90 95 97 98 96 96 97 98 98 87 75 73 73 74 73 74 74 74 79 81 79 79 76 72 76 77 77 77 76 75 70 72 77 75 72 91 88 68 64 64 65 66 67
91 93 90 99 99 97 87 91 90 100 94 83 86 84 87 90 82 75 75 76 77 76 78 81 80 79 76 72 76 84 82 82 83 77 80 84 82 84 80 68 67 67 69
88 92 86 90 87 92 82 89 86 92 99 88 74 73 89 87 88 90 88 88 88 88 84 79 77 75 71 80 67 88 85 85 82 89 87 84 82 84 89 92 78 72 68
91 84 82 97 93 71 84 94 79 80 92 95 84 72 65 68 69 83 82 79 75 70 65 64 78 73 64 75 84 79 77 85 89 86 95 83 83 88 88 95 83 75 69
82 83 84 94 98 85 82 95 88 94 85 92 88 78 75 71 73 77 78 79 76 66 63 68 66 68 68 72 82 87 98 88 96 96 100 91 81 86 81 74 78 76 70
68 75 75 86 93 90 89 97 100 85 72 70 78 82 84 77 86 83 76 73 65 58 65 63 58 50 58 81 85 72 72 94 97 100 100 93 90 87 80 75 75 86 78
52 61 62 65 72 85 94 93 90 84 94 94 85 82 87 96 87 78 75 76 78 74 93 81 74 85 68 86 90 89 81 98 99 100 100 92 91 85 73 77 79 82 90
45 48 49 49 51 55 72 85 82 82 83 86 80 72 98 96 86 85 77 76 55 62 75 57 80 86 88 99 99 98 100 100 100 99 98 91 80 78 75 78 81 85 86
56 56 54 44 39 41 51 63 75 79 73 69 77 86 96 92 87 80 72 60 68 81 89 86 88 94 97 100 100 100 100 100 99 94 84 76 71 71 77 79 83 83 84
55 58 57 48 46 42 45 46 46 52 59 65 76 90 90 93 93 97 98 95 99 100 97 98 98 100 99 100 100 100 98 93 84 70 69 74 75 76 78 79 81 83 84
45 53 59 60 58 52 47 49 48 52 62 79 77 94 98 98 99 100 100 100 100 100 99 100 100 100 99 98 96 90 82 69 62 61 62 68 71 68 76 78 80 84 84
43 44 49 62 58 58 58 58 65 72 78 80 91 92 93 95 99 100 100 100 100 99 100 100 99 98 88 77 72 65 64 64 65 64 65 68 70 73 80 83 86 87 84
48 47 46 49 52 59 61 65 68 72 79 84 75 82 87 86 92 97 99 98 97 97 97 97 92 86 77 68 66 66 63 62 63 62 64 66 69 75 80 84 85 86 83
48 46 45 47 49 49 56 64 66 67 70 74 79 76 83 84 89 92 96 95 95 92 92 87 81 74 70 71 69 65 64 64 64 64 69 71 75 76 77 80 82 86 84
54 54 54 56 52 48 49 56 64 66 65 68 71 74 76 80 84 89 90 90 88 87 85 79 76 74 72 77 74 70 66 68 72 76 80 84 82 85 84 83 84 83 84
58 58 60 55 53 54 54 51 55 63 66 68 69 71 73 76 79 81 82 80 81 80 78 76 74 71 70 73 71 69 69 71 72 74 79 86 85 84 90 88 84 84 84
67 63 60 57 54 61 62 60 54 51 60 68 71 71 71 73 75 76 78 80 80 78 76 74 76 74 73 69 69 70 69 71 76 80 83 87 88 87 86 86 85 83 75
71 74 66 60 64 69 72 70 64 60 55 54 63 72 72 72 73 75 78 80 79 80 79 80 80 79 78 82 76 73 74 77 79 80 82 85 86 86 88 89 86 80 73
69 72 73 70 75 75 74 76 75 75 75 71 63 70 75 75 75 77 80 80 82 85 85 84 82 82 76 79 77 80 79 76 77 78 78 78 86 90 90 89 85 79 69
64 68 71 74 78 78 79 81 82 81 78 77 77 73 80 80 78 80 85 84 84 88 88 86 85 83 82 79 78 82 83 81 79 80 81 80 81 86 90 88 77 77 72
63 67 70 70 75 77 79 82 84 84 83 81 79 77 84 88 86 89 90 92 89 90 89 89 87 83 83 83 86 98 98 93 89 86 83 79 70 73 76 73 79 85 68
67 68 69 73 76 78 79 82 85 85 84 82 78 77 82 88 95 97 94 93 92 91 89 86 86 84 84 85 88 98 100 100 99 97 93 83 58 42 38 47 62 88 78
70 70 73 76 77 77 80 83 86 88 84 81 80 80 81 86 87 95 97 97 89 86 85 83 81 84 86 84 83 85 95 98 100 100 97 92 82 78 71 59 60 68 85
76 75 76 80 79 80 83 84 85 91 89 86 85 84 86 86 90 95 99 100 92 89 83 79 78 83 80 82 85 88 90 94 96 100 99 98 96 90 82 74 65 63 76
Wind_Speed
4 10 10 10 8 8 5 16 14 26 28 33 30 30 29 28 28 28 26 25 22 21 19 16 15 16 14 12 12 10 10 10 5 7 6 9 11 12 9 8 5 6 5
12 7 12 12 14 12 17 8 24 31 31 33 31 29 28 29 26 28 25 24 22 19 19 16 15 15 14 13 13 14 11 10 10 4 3 1 7 11 12 7 6 3 2
16 10 7 12 12 11 10 10 6 31 32 31 28 23 23 21 21 21 22 22 21 21 18 16 15 13 14 14 12 14 14 10 11 13 5 2 3 3 10 10 6 6 4
14 12 11 13 15 14 10 10 7 12 19 34 31 32 27 23 25 25 22 19 17 16 16 17 15 14 14 17 17 14 12 9 13 14 18 5 2 2 1 6 8 9 8
14 13 9 20 15 14 17 10 10 9 9 22 30 33 26 25 26 22 20 20 18 16 15 13 15 13 13 16 18 10 9 14 10 13 14 10 8 7 5 3 2 8 7
9 11 9 18 20 15 16 17 19 23 8 5 12 19 21 19 24 26 25 22 17 14 13 8 10 6 7 13 15 13 12 17 15 16 28 18 4 5 6 4 6 5 6
5 4 11 12 23 29 25 19 29 25 20 14 17 19 13 14 19 27 25 20 20 20 18 16 13 13 12 21 21 18 17 20 26 25 27 22 14 9 7 4 2 1 1
8 7 6 7 17 23 23 22 26 37 34 21 24 21 18 20 23 19 17 20 20 17 17 20 20 21 23 28 29 29 27 22 25 26 24 20 14 11 11 7 5 1 3
5 8 8 13 18 19 22 27 25 24 24 31 36 32 32 24 24 21 17 19 21 21 17 15 9 22 29 31 29 28 25 21 23 23 21 16 12 12 10 9 8 5 1
9 7 5 5 15 16 19 18 27 27 30 32 36 38 31 32 32 28 34 29 19 19 23 17 20 24 30 29 27 29 23 19 18 17 14 13 12 10 10 9 8 7 7
7 7 7 9 7 5 14 20 23 24 28 29 34 33 30 34 34 34 34 31 32 36 32 26 29 29 29 26 22 20 17 19 16 13 13 12 11 9 7 6 8 8 9
7 6 5 6 4 2 4 9 8 12 9 16 22 20 21 20 22 21 22 28 31 30 30 27 23 24 23 19 19 18 17 16 16 13 12 11 10 9 9 9 7 8 8
8 7 7 6 7 5 1 5 7 11 9 7 8 6 11 14 16 19 22 23 21 20 20 19 21 21 20 20 18 18 17 15 13 13 12 11 11 9 10 9 9 8 8
8 7 5 6 11 12 12 8 9 9 13 15 12 9 5 8 13 13 13 14 16 16 15 16 17 18 19 17 17 18 18 16 13 11 10 10 9 8 8 9 9 9 7
10 9 8 7 14 16 14 12 11 7 8 12 13 5 3 7 12 13 13 13 12 14 15 16 17 18 20 20 19 18 17 16 15 12 11 11 10 9 10 10 9 8 8
11 10 10 9 14 16 12 11 9 8 7 9 12 16 15 14 12 13 16 17 16 17 19 19 21 22 21 19 18 16 17 15 12 11 9 7 7 7 7 7 7 8 8
10 11 10 9 16 16 14 13 8 7 7 9 11 13 15 15 14 15 16 18 19 19 21 21 20 19 18 17 18 17 15 14 12 10 9 6 5 4 5 6 7 6 7
9 8 10 14 14 13 14 10 6 5 4 6 8 10 12 13 14 16 17 18 19 20 21 21 20 20 18 21 19 17 15 13 11 10 9 8 6 7 8 6 6 6 6
8 10 13 12 11 14 14 13 12 7 2 1 4 7 10 13 15 17 18 18 19 19 19 20 20 20 20 21 20 17 14 11 9 8 7 7 9 7 7 8 8 7 6
12 14 18 14 14 15 15 13 10 9 8 6 6 9 10 13 15 16 17 19 21 21 21 20 19 17 18 18 18 15 13 11 10 8 8 7 6 7 9 9 5 7 6
9 11 11 11 12 14 16 15 13 10 9 8 7 8 12 15 16 17 20 20 20 20 20 20 19 18 17 20 20 17 14 12 12 8 6 6 9 10 9 8 8 6 4
8 9 10 11 11 12 13 12 11 13 13 11 9 9 12 15 17 20 21 20 21 21 19 18 17 18 17 17 20 20 15 13 12 10 8 7 9 9 9 8 6 6 7
4 6 8 9 8 12 14 14 15 14 14 12 8 8 11 15 20 22 21 19 20 23 21 19 20 20 21 19 17 19 18 13 12 10 9 7 6 8 8 7 6 6 7
3 5 6 7 9 11 12 14 16 14 12 10 8 5 7 11 13 17 20 22 23 22 20 19 20 25 23 21 20 19 17 15 13 12 9 9 7 6 5 5 7 10 9
6 4 4 4 5 7 8 11 13 14 13 10 4 3 5 9 12 14 17 20 21 23 22 24 24 24 22 23 20 21 21 20 18 13 11 10 9 8 8 9 10 10 11
5 3 2 2 4 5 6 10 11 11 10 7 5 2 2 6 8 11 11 15 12 17 14 14 17 17 17 16 18 16 16 14 12 15 14 13 13 13 12 11 11 11 14
Wind_Direction
202 154 163 157 176 232 221 164 215 220 159 171 169 165 164 166 167 164 168 171 171 174 175 173 177 182 179 191 198 200 200 212 212 167 219 235 242 234 221 228 217 236 248
169 171 148 168 180 194 200 230 208 181 168 160 161 159 165 170 174 174 167 172 174 176 179 182 182 194 187 197 198 201 197 203 214 183 198 262 251 239 212 215 206 160 245
157 156 146 146 164 159 135 61 44 184 173 162 155 159 156 148 151 163 165 170 173 174 183 191 198 194 195 206 199 211 195 189 197 212 194 220 230 129 193 194 211 229 242
149 156 162 126 135 136 160 82 57 168 180 170 158 158 157 157 162 166 166 169 173 182 190 188 201 210 216 225 219 206 197 215 219 222 232 265 40 62 63 172 196 223 222
147 166 173 149 170 173 173 184 148 197 244 177 177 173 162 163 160 157 163 169 170 172 179 193 212 221 238 241 254 219 225 237 227 253 276 254 260 253 215 249 192 207 244
163 171 170 138 156 186 204 191 170 201 210 191 149 163 162 158 160 163 166 173 181 189 191 183 192 216 272 265 248 247 251 251 257 261 248 233 186 214 226 234 253 239 229
157 180 170 165 170 184 207 190 188 191 200 190 193 198 206 214 208 182 182 186 192 197 209 216 218 225 259 263 258 257 256 272 263 245 228 230 224 222 239 249 252 207 249
161 176 158 155 180 181 194 198 194 188 198 202 217 219 222 214 208 202 213 220 219 221 221 214 239 247 269 265 255 257 264 259 254 233 224 219 215 226 235 224 189 326 233
126 174 166 171 186 191 198 191 190 191 192 192 209 222 227 225 220 216 220 230 233 239 239 238 258 244 242 255 257 257 259 234 228 228 211 208 230 230 222 219 221 180 171
6 65 98 147 199 205 190 185 191 199 202 206 211 217 214 216 221 231 233 236 251 275 262 263 247 237 248 254 250 241 227 225 210 200 207 209 207 214 218 222 225 232 207
14 27 29 30 24 79 185 183 206 218 223 219 221 222 217 218 233 231 232 234 237 248 251 240 241 242 241 225 216 212 205 201 193 193 195 196 208 210 221 229 222 217 221
43 42 46 36 11 319 114 148 148 175 197 218 199 204 204 201 194 208 214 218 221 222 230 236 233 217 212 198 197 190 188 189 190 184 181 189 204 209 213 216 221 235 237
45 49 43 55 54 41 127 122 168 150 156 175 151 164 199 187 187 183 191 198 205 211 218 210 200 196 193 186 190 191 179 183 181 185 189 195 212 212 218 228 231 234 227
43 40 61 80 69 63 56 74 92 117 140 142 133 129 153 166 181 183 191 198 198 203 200 199 195 186 182 185 184 172 173 178 184 188 189 201 213 213 216 216 224 231 234
32 25 30 33 53 58 66 72 76 99 131 138 142 136 156 171 171 168 166 181 189 190 193 191 186 182 182 181 177 179 180 182 182 185 191 208 215 219 230 226 222 220 228
26 37 33 31 35 39 55 66 73 85 113 115 129 158 192 194 180 171 172 173 179 184 187 187 180 177 181 179 178 182 179 181 183 181 190 207 209 208 223 233 238 242 238
22 24 25 31 25 33 41 46 63 90 105 131 153 169 181 175 168 170 171 170 173 177 180 178 179 179 180 178 174 177 179 177 177 177 184 195 202 203 224 228 236 237 247
22 17 17 13 15 25 23 25 40 69 113 147 167 172 174 174 173 172 172 171 174 179 180 180 182 182 182 178 176 176 177 174 176 179 182 192 210 198 206 221 238 252 255
359 7 8 3 21 25 8 7 7 10 1 229 205 202 192 188 186 183 181 179 181 182 185 185 184 184 180 183 180 178 175 169 170 176 186 193 198 220 212 209 224 236 251
349 348 348 359 12 5 2 1 357 352 347 335 272 237 222 214 203 198 190 189 188 187 184 184 189 190 185 185 178 177 173 168 176 186 194 198 208 217 221 217 217 251 265
340 345 357 4 359 354 355 353 350 353 340 317 290 246 231 224 218 204 200 197 190 186 187 188 188 192 198 193 185 180 180 182 190 199 207 215 213 215 213 213 207 245 269
351 352 355 351 351 356 358 349 343 333 324 316 292 260 234 219 211 207 201 200 193 189 191 190 191 194 201 205 200 189 184 187 198 199 212 219 216 214 215 211 210 228 252
1 360 344 344 1 0 356 343 337 334 327 317 293 245 218 203 204 195 197 194 194 194 196 195 199 200 198 205 202 197 193 187 193 193 201 210 221 214 218 222 220 228 247
18 353 351 5 5 357 351 343 338 335 328 312 298 253 208 203 199 207 207 198 196 194 191 194 198 203 199 202 203 198 194 198 201 207 208 210 216 224 232 234 229 232 239
330 342 348 356 353 350 350 346 347 345 339 328 321 280 235 208 206 203 206 204 212 204 200 209 207 198 202 210 210 205 201 203 207 201 206 206 214 221 232 234 236 239 236
293 295 309 340 354 354 349 351 355 3 353 334 328 295 195 203 191 201 203 210 214 217 221 223 214 210 226 214 208 206 203 201 198 199 211 215 224 230 234 236 234 233 234